KENT RIDGE 1

Last updated on Sun Oct 26 2025 00:02:38 GMT+0000 (Coordinated Universal Time)

1 41167U 15077B 25298.38818046 .00006228 00000+0 23878-3 0 9991 2 41167 14.9792 209.7535 0008639 171.4534 188.5935 15.21091120545268
UTC large
Height (km)
Speed (km/s)
/
Latitude / Longitude
Inclination (degrees)
Orbital Period (minutes)
Azimuth
Elevation
Range (km)
Doppler Factor

Next 0 passes for location: London (51.5072 / 0.1276)

Sorry there are no passes over London.